[[{"header":{"parameterUnit":"m.s-1","parameterCategory":1,"la1":30.2991,"la2":30.254,"lo1":-89.0895,"lo2":-89.0444,"dy":0.0017,"dx":0.0017,"nx":28,"ny":28,"refTime":"2024-04-15T03:00:00:Z","depth":0,"parameterNumber":2,"parameterNumberName":"U-component_of_WINDS"},"data":[0,0,0,0,0,0,0,0,0,0,0,0,0,0,0,0,0,0,0,0,0,0,0,0,0,0,0,0,0,0,0,0,0,0,0,0,0,0,0,0,0,0,0,0,0,0,0,0,0,0,0,0,0,0,0,0,0,0,-5.4068,-5.4069,0,-5.4226,-5.4228,-5.423,-5.4252,-5.4251,-5.4249,-5.4248,-5.4409,-5.4415,-5.442,0,0,0,0,0,0,0,0,0,0,0,0,0,-5.3783,-5.3788,-5.4067,-5.407,-5.4072,-5.4226,-5.4228,-5.423,-5.4252,-5.4251,-5.4249,-5.4247,-5.4407,-5.4414,-5.4421,0,0,0,0,0,0,0,0,0,0,0,0,0,-5.3921,-5.379,-5.4067,-5.4101,-5.4106,-5.4226,-5.4228,-5.4231,-5.4253,-5.4251,-5.4248,-5.4246,-5.4405,-5.4413,-5.4422,-5.4518,0,0,-5.4448,-5.4451,0,0,0,0,0,0,0,0,-5.3913,-5.3931,-5.4094,-5.4099,-5.4104,-5.4217,-5.4187,-5.4327,-5.4253,-5.4197,-5.4248,-5.4245,-5.4347,-5.436,-5.4395,-5.4526,-5.4533,-5.4448,-5.4453,-5.4457,-5.446,0,0,0,0,0,0,0,-5.3903,-5.3925,-5.413,-5.4096,-5.4103,-5.4108,-5.4126,-5.4214,-5.4282,-5.4202,-5.4204,-5.4222,-5.4349,-5.4386,-5.4399,-5.4535,-5.4448,-5.4456,-5.4461,-5.4464,-5.4754,-5.4757,0,0,0,0,0,0,-5.3888,-5.3916,-5.4125,-5.4135,-5.4001,-5.4115,-5.4134,-5.4183,-5.4281,-5.4294,-5.4224,-5.4223,-5.4373,-5.4389,-5.4404,-5.4524,-5.4457,-5.4465,-5.447,-5.4752,-5.4755,-5.4758,0,0,0,0,0,0,-5.3882,-5.3906,-5.4119,-5.4027,-5.4054,-5.4123,-5.4177,-5.4188,-5.4225,-5.4298,-5.4311,-5.4249,-5.4372,-5.4392,-5.449,-5.4529,-5.4469,-5.4477,-5.4749,-5.4753,-5.4756,-5.4763,0,0,0,0,0,0,-5.3873,-5.3904,-5.3941,-5.4027,-5.4059,-5.4202,-5.418,-5.4192,-5.4239,-5.4239,-5.4325,-5.4337,-5.4372,-5.4477,-5.4498,-5.454,-5.4483,-5.4745,-5.4751,-5.4755,-5.4759,-5.4767,-5.4773,0,0,0,0,0,-5.3863,-5.3936,-5.3943,-5.3968,-5.4107,-5.4204,-5.4222,-5.426,-5.4242,-5.428,-5.4328,-5.4335,-5.4523,-5.4487,-5.4511,-5.4556,-5.4743,-5.4749,-5.4755,-5.4756,-5.4765,-5.4773,0,0,0,0,0,0,-5.3852,-5.3948,-5.3956,-5.4059,-5.4124,-5.4207,-5.4256,-5.4268,-5.4338,-5.4335,-5.438,-5.4399,-5.4494,-5.4536,-5.4494,-5.4655,-5.4631,-5.4642,-5.4624,-5.4633,-5.464,-5.4627,-5.449,0,0,0,0,0,-5.3862,-5.3933,-5.4013,-5.4096,-5.4128,-5.4187,-5.4231,-5.4255,-5.4323,-5.435,-5.4404,-5.447,-5.4544,-5.4591,-5.4663,-5.4767,-5.4786,-5.481,-5.4816,-5.4821,-5.4829,-5.4887,-5.4899,-5.4777,-5.4777,-5.4777,0,0,-5.3882,-5.3943,-5.3985,-5.4095,-5.4148,-5.422,-5.4209,-5.4286,-5.434,-5.4361,-5.4456,-5.4499,-5.4576,-5.4676,-5.4724,-5.4714,-5.4868,-5.4829,-5.4832,-5.4838,-5.4894,-5.4906,-5.4916,-5.4781,-5.478,-5.478,0,0,-5.3955,-5.4009,-5.4084,-5.4138,-5.4218,-5.4257,-5.4275,-5.4358,-5.4388,-5.4484,-5.4502,-5.4567,-5.4694,-5.4747,-5.4791,-5.4888,-5.4896,-5.491,-5.4943,-5.4999,-5.5009,-5.5017,-5.5051,-5.5062,-5.4919,-5.4919,-5.4919,0,-5.397,-5.408,-5.4121,-5.4198,-5.4246,-5.427,-5.4347,-5.4396,-5.4496,-5.4528,-5.4516,-5.4676,-5.4729,-5.4842,-5.4866,-5.4902,-5.4923,-5.4899,-5.5004,-5.5013,-5.5022,-5.5054,-5.5067,-5.492,-5.4919,-5.4919,-5.4919,0,-5.4093,-5.417,-5.4221,-5.4317,-5.4371,-5.4447,-5.45,-5.455,-5.4571,-5.4611,-5.471,-5.4775,-5.4861,-5.489,-5.4911,-5.5008,-5.4999,-5.4995,-5.4971,-5.5034,-5.5065,-5.5078,-5.4921,-5.4921,-5.492,-5.492,0,0,-5.4161,-5.4281,-5.4299,-5.4343,-5.4434,-5.4494,-5.4572,-5.4656,-5.4698,-5.4767,-5.4832,-5.494,-5.4938,-5.4988,-5.5015,-5.5064,-5.5136,-5.5055,-5.5057,-5.5066,-5.5246,-5.5246,-5.526,-5.5143,-5.5146,-5.5148,-5.5239,0,-5.4244,-5.4383,-5.4424,-5.4541,-5.4611,-5.4637,-5.4705,-5.4768,-5.4809,-5.4875,-5.492,-5.4995,-5.4987,-5.5017,-5.5067,-5.5116,-5.5172,-5.5111,-5.5204,-5.5207,-5.5181,-5.5276,-5.5277,-5.5359,-5.5251,-5.5253,-5.5255,0,-5.4358,-5.4429,-5.4553,-5.4636,-5.4668,-5.4728,-5.4809,-5.4872,-5.4945,-5.4972,-5.5028,-5.5052,-5.5134,-5.5109,-5.5223,-5.518,-5.5221,-5.5252,-5.5256,-5.5264,-5.5232,-5.5285,-5.5386,-5.5398,-5.5275,-5.5273,-5.5272,0,-5.4393,-5.452,-5.4611,-5.4648,-5.4748,-5.4789,-5.4833,-5.4904,-5.4952,-5.5024,-5.5056,-5.5136,-5.518,-5.5241,-5.5286,-5.5263,-5.5396,-5.5374,-5.542,-5.5418,-5.5444,-5.5441,-5.5551,-5.5474,-5.5474,-5.5474,-5.5474,0,-5.448,-5.4554,-5.4628,-5.4683,-5.4768,-5.4815,-5.4898,-5.4942,-5.5006,-5.507,-5.5098,-5.5158,-5.5215,-5.5283,-5.5319,-5.5407,-5.5427,-5.545,-5.5459,-5.5447,-5.5443,-5.5472,-5.5467,-5.5477,-5.5476,-5.5476,-5.5475,0,-5.4531,-5.4584,-5.4684,-5.4771,-5.4795,-5.4853,-5.4928,-5.4983,-5.5026,-5.5107,-5.5129,-5.5196,-5.5278,-5.533,-5.5433,-5.5458,-5.5554,-5.5562,-5.5529,-5.5533,-5.5574,-5.5569,-5.5705,-5.5725,-5.5636,-5.5637,-5.5638,0,-5.4582,-5.464,-5.4734,-5.4779,-5.4823,-5.4896,-5.4946,-5.4996,-5.5047,-5.5136,-5.518,-5.5264,-5.5333,-5.5462,-5.552,-5.56,-5.5608,-5.565,-5.562,-5.5606,-5.5607,-5.5602,-5.5607,-5.5654,-5.5655,-5.5655,-5.5656,0,-5.4666,-5.4689,-5.4761,-5.4842,-5.4901,-5.4967,-5.5033,-5.5068,-5.5129,-5.5186,-5.527,-5.5323,-5.543,-5.5512,-5.5598,-5.5643,-5.5659,-5.5666,-5.568,-5.5667,-5.5645,-5.5656,-5.5541,-5.5661,-5.5661,-5.566,-5.566,-5.566,-5.4718,-5.477,-5.4845,-5.4923,-5.4978,-5.504,-5.5096,-5.5146,-5.5217,-5.5308,-5.5333,-5.5421,-5.5494,-5.5611,-5.5658,-5.5727,-5.5721,-5.5742,-5.5748,-5.5751,-5.5751,-5.5636,-5.5743,-5.5743,-5.5743,-5.5743,-5.5743,0,-5.4802,-5.4851,-5.4923,-5.5015,-5.5077,-5.5089,-5.5163,-5.5214,-5.5291,-5.5358,-5.5426,-5.5523,-5.5603,-5.5669,-5.5752,-5.5795,-5.5805,-5.5815,-5.5811,-5.5821,-5.5752,-5.5731,-5.5805,-5.5805,-5.5805,-5.5805,-5.5805,-5.5805,-5.4852,-5.4942,-5.4975,-5.5092,-5.5142,-5.5228,-5.5269,-5.5326,-5.538,-5.5487,-5.5554,-5.5596,-5.5663,-5.5752,-5.5826,-5.5844,-5.5872,-5.5881,-5.5899,-5.5833,-5.5826,-5.5819,-5.5799,-5.5887,-5.5887,-5.5962,-5.5963,-5.5963]},{"header":{"parameterUnit":"m.s-1","parameterCategory":1,"la1":30.2991,"la2":30.254,"lo1":-89.0895,"lo2":-89.0444,"dy":0.0017,"dx":0.0017,"nx":28,"ny":28,"refTime":"2024-04-15T03:00:00:Z","depth":0,"parameterNumber":3,"parameterNumberName":"V-component_of_WINDS"},"data":[0,0,0,0,0,0,0,0,0,0,0,0,0,0,0,0,0,0,0,0,0,0,0,0,0,0,0,0,0,0,0,0,0,0,0,0,0,0,0,0,0,0,0,0,0,0,0,0,0,0,0,0,0,0,0,0,0,0,4.7011,4.7012,0,4.7062,4.7062,4.7063,4.7098,4.7098,4.7099,4.7099,4.7146,4.7147,4.7148,0,0,0,0,0,0,0,0,0,0,0,0,0,4.694,4.6941,4.7011,4.7012,4.7012,4.7062,4.7062,4.7063,4.7098,4.7098,4.7099,4.7099,4.7146,4.7147,4.7148,0,0,0,0,0,0,0,0,0,0,0,0,0,4.6979,4.6942,4.7011,4.7036,4.7039,4.7061,4.7062,4.7063,4.7098,4.7098,4.7099,4.7099,4.7145,4.7147,4.7148,4.7149,0,0,4.7153,4.7153,0,0,0,0,0,0,0,0,4.6977,4.6981,4.7032,4.7034,4.7037,4.7074,4.7055,4.7092,4.7098,4.7075,4.7099,4.7099,4.7121,4.7125,4.7133,4.7151,4.7153,4.7153,4.7154,4.7154,4.7155,0,0,0,0,0,0,0,4.6974,4.6979,4.7031,4.7032,4.7036,4.7043,4.7049,4.7062,4.7095,4.7077,4.708,4.7086,4.7123,4.7132,4.7135,4.7154,4.7153,4.7154,4.7155,4.7156,4.7175,4.7174,0,0,0,0,0,0,4.6968,4.6977,4.7029,4.7032,4.7008,4.7044,4.7051,4.7062,4.7095,4.7101,4.7085,4.7087,4.7129,4.7133,4.7136,4.714,4.7154,4.7156,4.7157,4.7175,4.7175,4.7174,0,0,0,0,0,0,4.6966,4.6972,4.7027,4.7005,4.7013,4.7045,4.7057,4.7063,4.7071,4.7101,4.7107,4.7088,4.7129,4.7134,4.7146,4.7142,4.7156,4.7158,4.7175,4.7175,4.7174,4.7147,0,0,0,0,0,0,4.6964,4.6972,4.6973,4.7005,4.7014,4.7037,4.7057,4.7063,4.7074,4.7077,4.7106,4.7111,4.713,4.7143,4.7147,4.7144,4.7159,4.7176,4.7175,4.7175,4.7148,4.7145,4.7143,0,0,0,0,0,4.6961,4.6962,4.6973,4.6979,4.7017,4.7037,4.7042,4.7065,4.7074,4.7075,4.7094,4.711,4.7142,4.7144,4.7149,4.7146,4.7176,4.7175,4.7175,4.7149,4.7146,4.7143,0,0,0,0,0,0,4.6927,4.6967,4.6979,4.6991,4.701,4.7043,4.7045,4.7061,4.7077,4.7079,4.7106,4.7112,4.7121,4.7135,4.7137,4.7149,4.7161,4.7161,4.714,4.7137,4.7134,4.7131,4.716,0,0,0,0,0,4.6921,4.6935,4.6968,4.6975,4.6985,4.7013,4.7022,4.7039,4.706,4.7068,4.7088,4.7106,4.7121,4.7129,4.7144,4.715,4.7157,4.715,4.7148,4.7145,4.7145,4.715,4.7148,4.7171,4.7171,4.7171,0,0,4.6908,4.6931,4.6938,4.6969,4.6986,4.6999,4.702,4.7032,4.7042,4.7069,4.7083,4.7098,4.712,4.7129,4.7134,4.714,4.714,4.7144,4.7142,4.7144,4.7149,4.7147,4.7145,4.7171,4.7171,4.7171,0,0,4.6891,4.691,4.6919,4.6936,4.6963,4.6982,4.6983,4.7014,4.7026,4.7039,4.706,4.7071,4.7095,4.711,4.7121,4.7111,4.7125,4.7114,4.7101,4.7105,4.7103,4.7102,4.7099,4.7097,4.7114,4.7114,4.7114,0,4.6871,4.6894,4.692,4.6933,4.6945,4.6972,4.698,4.6995,4.7024,4.7031,4.7039,4.707,4.7087,4.71,4.7098,4.7105,4.7108,4.7112,4.7102,4.71,4.7099,4.7097,4.7095,4.7112,4.7113,4.7113,4.7113,0,4.6868,4.6883,4.6886,4.6916,4.6929,4.6939,4.6966,4.6975,4.6991,4.7008,4.7022,4.7043,4.7063,4.7067,4.7081,4.7082,4.7086,4.7097,4.7109,4.7095,4.7093,4.7092,4.711,4.7111,4.7111,4.7112,0,0,4.6832,4.6877,4.6878,4.6892,4.6923,4.6935,4.6945,4.6966,4.6974,4.6993,4.7002,4.7022,4.7033,4.7045,4.7061,4.7065,4.7056,4.7076,4.7076,4.7072,4.7059,4.7051,4.7049,4.7066,4.7066,4.7065,4.7057,0,4.6821,4.6844,4.6868,4.6882,4.6896,4.6922,4.6931,4.695,4.6967,4.698,4.6998,4.7012,4.7025,4.7033,4.7037,4.7056,4.7054,4.7057,4.7074,4.7074,4.7069,4.7048,4.704,4.7031,4.7056,4.7056,4.7056,0,4.6812,4.6832,4.6847,4.6878,4.6885,4.6893,4.6915,4.6927,4.6949,4.6961,4.6975,4.6993,4.7004,4.7014,4.703,4.7032,4.704,4.705,4.705,4.7053,4.7065,4.7051,4.7029,4.7028,4.7055,4.7055,4.7055,0,4.6785,4.6815,4.6829,4.684,4.6876,4.6881,4.6896,4.6918,4.693,4.6948,4.6955,4.6973,4.6983,4.6997,4.7018,4.7024,4.7032,4.7044,4.7042,4.7041,4.7043,4.7042,4.7022,4.7046,4.7046,4.7046,4.7046,0,4.677,4.6779,4.6817,4.6826,4.6836,4.6863,4.6872,4.6889,4.6909,4.692,4.6942,4.6952,4.698,4.6992,4.7009,4.702,4.7023,4.7033,4.7037,4.7032,4.703,4.7038,4.7039,4.7046,4.7046,4.7046,4.7046,0,4.6743,4.6768,4.6785,4.6818,4.6827,4.6833,4.686,4.6869,4.6887,4.6901,4.6906,4.6933,4.6949,4.6972,4.6994,4.7006,4.7014,4.7021,4.7008,4.701,4.7007,4.7007,4.6991,4.6991,4.7014,4.7014,4.7014,0,4.6732,4.674,4.6775,4.6785,4.68,4.6815,4.6827,4.6854,4.6865,4.6891,4.6896,4.6914,4.693,4.6954,4.6976,4.6993,4.7001,4.6994,4.7003,4.6997,4.7002,4.7001,4.7002,4.6992,4.6991,4.6991,4.6991,0,4.6712,4.6725,4.6743,4.6765,4.6779,4.6797,4.6816,4.6823,4.6853,4.6864,4.6882,4.6894,4.6918,4.6936,4.6956,4.697,4.6985,4.6988,4.6988,4.6983,4.6975,4.698,4.7002,4.6988,4.6988,4.6988,4.6989,4.6989,4.6694,4.6702,4.6728,4.6747,4.6764,4.6782,4.6792,4.6812,4.6828,4.685,4.6864,4.6881,4.6903,4.6932,4.6945,4.6957,4.6964,4.6964,4.6964,4.6964,4.6963,4.6972,4.6961,4.6961,4.6961,4.6961,4.6961,0,4.6675,4.6693,4.6711,4.6738,4.6752,4.6767,4.6789,4.68,4.6815,4.6835,4.685,4.6871,4.6888,4.691,4.6929,4.6935,4.6942,4.6939,4.6939,4.6942,4.6956,4.6954,4.6933,4.6933,4.6933,4.6933,4.6933,4.6933,4.6668,4.6683,4.6699,4.6722,4.674,4.6758,4.677,4.6785,4.6801,4.6824,4.6839,4.6854,4.6875,4.6895,4.6911,4.6917,4.6923,4.6918,4.6926,4.6938,4.6941,4.6943,4.6942,4.6918,4.6918,4.6911,4.6911,4.6911]}]]